TimeCDT,TemperatureF,Dew PointF,Humidity,Sea Level PressureIn,VisibilityMPH,Wind Direction,Wind SpeedMPH,Gust SpeedMPH,PrecipitationIn,Events,Conditions,WindDirDegrees,DateUTC
12:53 AM,51.1,42.1,71,30.02,10.0,Calm,Calm,-,N/A,,Clear,0,2012-11-01 05:53:00
1:53 AM,46.9,41.0,80,30.02,10.0,Calm,Calm,-,N/A,,Clear,0,2012-11-01 06:53:00
2:53 AM,46.9,41.0,80,30.03,10.0,Calm,Calm,-,N/A,,Clear,0,2012-11-01 07:53:00
3:53 AM,46.0,41.0,83,30.04,10.0,Calm,Calm,-,N/A,,Clear,0,2012-11-01 08:53:00
4:53 AM,45.0,39.0,80,30.04,10.0,Calm,Calm,-,N/A,,Clear,0,2012-11-01 09:53:00
5:53 AM,42.1,37.9,85,30.04,10.0,Calm,Calm,-,N/A,,Clear,0,2012-11-01 10:53:00
6:53 AM,42.1,39.9,92,30.04,10.0,Calm,Calm,-,N/A,,Clear,0,2012-11-01 11:53:00
7:53 AM,39.9,37.0,89,30.07,10.0,Calm,Calm,-,N/A,,Clear,0,2012-11-01 12:53:00
8:53 AM,48.0,44.1,86,30.07,10.0,ENE,5.8,-,N/A,,Clear,70,2012-11-01 13:53:00
9:53 AM,53.1,44.1,71,30.06,10.0,ENE,3.5,-,N/A,,Clear,70,2012-11-01 14:53:00
10:53 AM,57.9,46.0,65,30.06,10.0,ENE,5.8,-,N/A,,Clear,60,2012-11-01 15:53:00
11:53 AM,64.9,46.0,50,30.03,10.0,NE,8.1,-,N/A,,Clear,40,2012-11-01 16:53:00
12:53 PM,69.1,46.0,44,30.00,10.0,NE,6.9,-,N/A,,Clear,40,2012-11-01 17:53:00
1:53 PM,73.0,45.0,37,29.97,10.0,NNE,9.2,-,N/A,,Clear,30,2012-11-01 18:53:00
2:53 PM,75.0,44.1,33,29.94,10.0,NE,10.4,-,N/A,,Clear,40,2012-11-01 19:53:00
3:53 PM,75.9,45.0,33,29.92,10.0,NE,10.4,-,N/A,,Clear,50,2012-11-01 20:53:00
4:53 PM,75.0,45.0,34,29.92,10.0,ENE,10.4,-,N/A,,Clear,60,2012-11-01 21:53:00
5:53 PM,72.0,45.0,38,29.92,10.0,ENE,6.9,-,N/A,,Clear,70,2012-11-01 22:53:00
6:53 PM,68.0,46.0,45,29.94,10.0,Calm,Calm,-,N/A,,Clear,0,2012-11-01 23:53:00
7:53 PM,64.0,46.0,52,29.95,10.0,ENE,3.5,-,N/A,,Clear,60,2012-11-02 00:53:00
8:53 PM,62.1,46.0,56,29.95,10.0,NE,3.5,-,N/A,,Clear,40,2012-11-02 01:53:00
9:53 PM,60.1,46.9,62,29.95,10.0,ENE,3.5,-,N/A,,Clear,60,2012-11-02 02:53:00
10:53 PM,57.0,46.9,69,29.95,10.0,Calm,Calm,-,N/A,,Clear,0,2012-11-02 03:53:00
11:53 PM,55.9,46.0,69,29.95,10.0,NE,4.6,-,N/A,,Clear,50,2012-11-02 04:53:00